DW3371 Weather Reports


Display with metric or nautical units.
time (UTC)temp
F
wind
direction
speed
MPH
gust
MPH
rain 1hr
in
rain 24hr
in
rain mn
in
humidity
%
barometer
mb
20260510003409 47 0 1.0 6.0 0.00 0.00 0.00 86 1018.2
20260510000411 47 11 2.0 6.0 0.00 0.00 0.00 85 1018.3
20260509230415 50 13 2.0 8.0 0.00 0.00 0.00 83 1018.5
20260509223410 51 40 4.0 9.0 0.00 0.00 0.00 82 1018.2
20260509220419 51 13 5.0 12.0 0.00 0.00 0.00 82 1018.0
20260509213404 52 40 5.0 11.0 0.00 0.00 0.00 79 1017.7
20260509210406 53 48 6.0 16.0 0.00 0.00 0.00 77 1017.8
20260509203404 54 68 5.0 13.0 0.00 0.00 0.00 73 1017.8
20260509200415 55 53 5.0 11.0 0.00 0.00 0.00 56 1017.3
20260509193406 57 57 6.0 11.0 0.00 0.00 0.00 51 1016.9
20260509190411 59 47 4.0 11.0 0.00 0.00 0.00 46 1016.5
20260509183414 62 112 8.0 16.0 0.00 0.00 0.00 38 1016.2
20260509180405 65 51 8.0 18.0 0.00 0.00 0.00 36 1015.9
20260509173421 66 90 12.0 20.0 0.00 0.00 0.00 35 1015.9
20260509170405 67 82 11.0 19.0 0.00 0.00 0.00 37 1015.7
20260509163414 69 95 9.0 18.0 0.00 0.00 0.00 36 1015.7
20260509160357 70 106 6.0 15.0 0.00 0.00 0.00 38 1015.6
20260509153358 71 59 5.0 13.0 0.00 0.00 0.00 35 1015.2
20260509150405 71 70 4.0 19.0 0.00 0.00 0.00 35 1015.2
20260509143358 71 32 6.0 13.0 0.00 0.00 0.00 35 1015.5
20260509140357 70 33 6.0 12.0 0.00 0.00 0.00 34 1015.7
20260509130357 68 0 5.0 11.0 0.00 0.00 0.00 35 1016.1
20260509123357 68 90 3.0 10.0 0.00 0.00 0.00 40 1016.4
20260509113354 67 146 4.0 12.0 0.00 0.00 0.00 44 1016.9
20260509110353 66 79 4.0 12.0 0.00 0.00 0.00 42 1017.3
20260509103354 65 80 4.0 12.0 0.00 0.00 0.00 44 1017.3
20260509100354 65 72 5.0 12.0 0.00 0.00 0.00 48 1017.5
20260509093355 64 112 5.0 10.0 0.00 0.00 0.00 51 1017.4
20260509090354 63 82 5.0 9.0 0.00 0.00 0.00 53 1017.5
20260509083354 61 101 4.0 7.0 0.00 0.00 0.00 59 1017.6
20260509080353 59 91 3.0 7.0 0.00 0.00 0.00 65 1017.7
20260509073354 56 108 1.0 4.0 0.00 0.00 0.00 72 1017.9
20260509070351 54 132 1.0 5.0 0.00 0.00 0.00 76 1017.8
20260509063351 52 86 2.0 6.0 0.00 0.00 0.00 81 1017.5
20260509060346 49 90 1.0 4.0 0.00 0.00 0.00 86 1017.7
20260509053347 47 76 0.0 3.0 0.00 0.00 0.00 87 1017.7
20260509050346 46 94 0.0 1.0 0.00 0.00 0.00 87 1017.5
20260509040345 46 111 2.0 6.0 0.00 0.00 0.00 85 1017.4
20260509033343 46 85 3.0 7.0 0.00 0.00 0.00 84 1017.3
20260509030348 46 94 2.0 4.0 0.00 0.00 0.00 82 1017.5
20260509023350 46 119 1.0 3.0 0.00 0.00 0.00 81 1017.6
20260509020344 46 117 1.0 2.0 0.00 0.00 0.00 80 1017.5
20260509013341 47 118 0.0 2.0 0.00 0.00 0.00 78 1017.6